IT-SPINS
1 49017U 21013G 22258.48851022 .00011416 00000-0 42361-3 0 9999
2 49017 51.5961 328.3323 0008680 41.1350 319.0282 15.28008734 67545
LEDSAT
1 49069U 21073D 22258.50165286 .00004227 00000-0 26748-3 0 9998
2 49069 97.5168 329.6112 0026282 349.1748 10.8912 15.09252929 59410
CUTE
1 49263U 21088D 22258.18308490 .00006234 00000-0 45706-3 0 9995
2 49263 97.5822 324.3123 0021824 117.7421 242.6022 15.03678168 52906
Binar-1
1 49272U 98067SR 22258.31199024 .00546963 13593-3 12662-2 0 9998
2 49272 51.6244 216.0674 0003336 105.0792 255.0585 15.96576898 53870
TeikyoSat 4
1 49396U 21102B 22258.10496481 .00001957 00000-0 15819-3 0 9998
2 49396 97.5282 313.3273 0016047 317.8574 42.1416 15.00829944 46494
Z-Sat
1 49399U 21102E 22258.45955145 .00001896 00000-0 14543-3 0 9991
2 49399 97.5255 314.7504 0021870 285.7729 74.1085 15.02801065 46600
KOSEN 1
1 49402U 21102H 22258.39055279 .00003002 00000-0 22110-3 0 9998
2 49402 97.5192 314.8651 0020907 275.4612 84.4229 15.03925456 46624
HO-113
1 50466U 21131B 22258.52575532 .00000244 00000-0 94391-4 0 9992
2 50466 98.5757 335.7179 0003778 228.4964 131.5899 14.38524129 37868
Tevel
1 50999U 22002R 22258.45896581 .00009070 00000-0 47553-3 0 9996
2 50999 97.4733 324.1054 0012449 107.0756 13.8952 15.15929614 37058
Grizu-263a
1 51025U 22002AT 22258.00698217 .00019022 00000-0 91618-3 0 9993
2 51025 97.4899 324.7539 0013634 112.5602 247.7076 15.18708177 37028
NO-116
1 51031U 22002AZ 22258.17656238 .00015795 00000-0 79357-3 0 9994
2 51031 97.4853 324.5352 0014161 111.5349 248.7395 15.17268548 37037
IRIS-A
1 51044U 22002BN 22258.43462165 .00006072 00000-0 33692-3 0 9991
2 51044 97.4740 323.6893 0010703 111.3045 248.9330 15.14070987 37020
DELFI-PQ
1 51074U 22002CU 22258.14049308 .00018074 00000-0 86560-3 0 9999
2 51074 97.4978 325.4491 0014467 139.0511 221.1813 15.18906565 37063
SO-115
1 51080U 22002DA 22257.64394132 .00009817 00000-0 48904-3 0 9993
2 51080 97.4996 324.7753 0014391 140.6997 219.5284 15.17683874 36971
SO-114
1 51081U 22002DB 22258.43549459 .00012919 00000-0 64174-3 0 9990
2 51081 97.4984 325.5321 0014759 138.0567 222.1800 15.17706121 37090
OreSat0
1 52017U 22026K 22258.55356015 .00009542 00000-0 49584-3 0 9999
2 52017 97.5070 257.3098 0025413 325.6614 34.2975 15.16016792 27839
Planetum 1
1 52738U 22057G 22258.30541390 .00008698 00000-0 49982-3 0 9991
2 52738 97.5198 11.5581 0007446 213.8540 146.2216 15.12712887 17014
Foresail-1
1 52766U 22057AL 22258.61767543 .00005356 00000-0 29913-3 0 9996
2 52766 97.5296 12.2314 0013133 197.1657 219.5923 15.13873513 17079
SNUGLITE 2
1 52899U 22065F 22258.51798588 .00000694 00000-0 15922-3 0 9999
2 52899 98.0313 46.8348 0008319 3.5380 356.5894 14.58417028 10823
CTIM
1 52950U 22074G 22258.57171403 .00013681 00000-0 55062-3 0 9993
2 52950 45.0098 68.9279 0004033 296.3325 63.7151 15.24874590 11482
GREENCUBE
1 53106U 22080B 22258.34266426 -.00000003 00000-0 00000-0 0 9993
2 53106 70.1577 55.2008 0008582 243.2223 116.7559 6.42557972 4099
AstroBioCubeSat
1 53107U 22080C 22257.45252629 -.00000003 00000-0 00000-0 0 9995
2 53107 70.1514 55.5630 0013349 235.2654 124.6873 6.42111459 3947
CELESTA
1 53111U 22080G 22255.16019017 -.00000003 00000-0 00000 0 0 9997
2 53111 70.1086 56.1818 0009300 227.1361 132.8517 6.42544045 3765
RS4S
1 53306U 98067TR 22258.44461198 .00056701 00000-0 85734-3 0 9992
2 53306 51.6401 248.6911 0000806 171.8944 188.2060 15.54139373 8672
RS3S
1 53308U 98067TT 22258.50856016 .00053846 00000-0 81609-3 0 9992
2 53308 51.6401 248.3680 0001082 154.5094 205.5950 15.54096323 8741
RS1S
1 53309U 98067TU 22258.50645060 .00055269 00000-0 83360-3 0 9995
2 53309 51.6397 248.3522 0000683 209.7555 150.3397 15.54218833 8690
RS5S
1 53310U 98067TV 22258.50824361 .00055852 00000-0 84610-3 0 9997
2 53310 51.6401 248.3666 0000506 198.3377 161.7595 15.54093413 8721
RS6S
1 53311U 98067TW 22258.50248489 .00055707 00000-0 83463-3 0 9993
2 53311 51.6395 248.3253 0001444 138.5143 221.5958 15.54397838 8743
RS9S
1 53312U 98067TX 22258.50461486 .00054016 00000-0 81427-3 0 9998
2 53312 51.6401 248.3411 0000754 227.8829 132.2098 15.54243248 8685
RS12S
1 53313U 98067TY 22258.50312341 .00055859 00000-0 84013-3 0 9994
2 53313 51.6400 248.3316 0000268 236.3856 123.7109 15.54291672 8732
/EX
1
0
SB KEPS @ AMSAT $ORB22251.N
2Line Orbital Elements 22251.AMSAT
HR AMSAT ORBITAL ELEMENTS FOR AMATEUR SATELLITES IN NASA FORMAT
FROM WA5QGD FORT WORTH,TX September 8, 2022
BID: ORB22251.N
DECODE 2-LINE ELSETS WITH THE FOLLOWING KEY:
1 AAAAAU 00 0 0 BBBBB.BBBBBBBB .CCCCCCCC 00000-0 00000-0 0 DDDZ
2 AAAAA EEE.EEEE FFF.FFFF GGGGGGG HHH.HHHH III.IIII JJ.JJJJJJJJKKKKKZ
KEY: A-CATALOGNUM B-EPOCHTIME C-DECAY D-ELSETNUM E-INCLINATION F-RAAN
G-ECCENTRICITY H-ARGPERIGEE I-MNANOM J-MNMOTION K-ORBITNUM Z-CHECKSUM
TO ALL RADIO AMATEURS BT
AO-07
1 07530U 74089B 22251.82348476 -.00000035 00000-0 69875-4 0 9995
2 07530 101.9133 231.9800 0011826 241.9899 234.8968 12.53656796188151
UO-11
1 14781U 84021B 22251.40152727 .00000800 00000-0 10258-3 0 9993
2 14781 97.6249 235.0886 0009689 55.3902 304.8226 14.83782708 52345
LO-19
1 20442U 90005G 22251.39601225 .00000081 00000-0 46275-4 0 9993
2 20442 98.8026 217.5579 0010677 287.5708 72.4309 14.33082468704983
HUBBLE
1 20580U 90037B 22251.94784765 .00002290 00000-0 12351-3 0 9994
2 20580 28.4710 335.4441 0002371 209.1188 322.4572 15.10837407579120
MET-2/21
1 22782U 93055A 22251.73490830 .00000096 00000-0 72549-4 0 9995
2 22782 82.5490 308.1440 0023586 112.8399 25.0020 13.83858517465797
AO-27
1 22825U 93061C 22251.83777451 .00000054 00000-0 38805-4 0 9999
2 22825 98.8821 284.6168 0008783 161.9062 198.2434 14.30189371510344
IO-26
1 22826U 93061D 22251.35117788 .00000072 00000-0 45189-4 0 9991
2 22826 98.8766 283.9945 0009522 150.7471 209.4245 14.30537440510260
FO-29
1 24278U 96046B 22251.84144088 .00000025 00000-0 58785-4 0 9991
2 24278 98.5158 264.0554 0351257 67.0116 296.7673 13.53119594287133
NOAA-15
1 25338U 98030A 22251.83831461 .00000107 00000-0 62797-4 0 9990
2 25338 98.6400 280.2653 0011303 58.5330 301.6953 14.26168153265151
GO-32
1 25397U 98043D 22251.35441866 .00000039 00000-0 36721-4 0 9994
2 25397 98.8242 202.0668 0000792 169.3784 190.7411 14.23768827255228
ISS
1 25544U 98067A 22251.86567130 .00007458 00000-0 13803-3 0 9990
2 25544 51.6441 282.0293 0002636 208.5437 134.7895 15.50103990358157
NO-44
1 26931U 01043C 22251.56990501 .00000074 00000-0 59855-4 0 9993
2 26931 67.0508 203.8551 0006312 257.4187 102.6208 14.30729741 93457
SO-50
1 27607U 02058C 22251.85210336 .00000584 00000-0 10030-3 0 9991
2 27607 64.5550 46.6670 0081291 278.4616 80.7279 14.76225000 60896
CO-55
1 27844U 03031E 22251.77927187 .00000206 00000-0 11193-3 0 9998
2 27844 98.6809 258.2140 0009083 215.4804 144.5771 14.22489112995751
CO-57
1 27848U 03031J 22251.69797183 .00000164 00000-0 94032-4 0 9991
2 27848 98.6853 258.6356 0008759 231.4328 128.6066 14.22041186995547
RS-22
1 27939U 03042A 22251.79197585 .00000771 00000-0 14493-3 0 9991
2 27939 98.2030 32.5459 0011697 308.5443 51.4716 14.67450112 13260
NOAA-18
1 28654U 05018A 22251.70643453 .00000153 00000-0 10660-3 0 9998
2 28654 98.9434 322.0547 0015332 96.6178 263.6739 14.12772794891826
CO-58
1 28895U 05043F 22251.33230654 .00000812 00000-0 16222-3 0 9999
2 28895 98.1173 21.4872 0015542 237.9314 122.0380 14.64455314899776
